CDT,Max TemperatureF,Mean TemperatureF,Min TemperatureF,Max Dew PointF,MeanDew PointF,Min DewpointF,Max Humidity, Mean Humidity, Min Humidity, Max Sea Level PressureIn, Mean Sea Level PressureIn, Min Sea Level PressureIn, Max VisibilityMiles, Mean VisibilityMiles, Min VisibilityMiles, Max Wind SpeedMPH, Mean Wind SpeedMPH, Max Gust SpeedMPH,PrecipitationIn, CloudCover, Events, WindDirDegrees
2013-6-1,86,80,74,75,72,70,88,75,61,30.03,29.99,29.95,10,9,4,17,9,23,0.05,6,Rain,151
2013-6-2,91,80,69,73,69,64,93,70,46,30.01,29.96,29.87,10,7,0,18,6,28,0.22,4,Fog-Rain-Thunderstorm,340
2013-6-3,88,79,69,73,71,67,97,79,61,29.95,29.91,29.86,10,8,6,20,3,22,0.06,5,Rain,158
2013-6-4,91,82,72,74,71,68,93,71,49,29.97,29.93,29.90,10,10,4,16,6,20,0.00,4,,132
2013-6-5,90,79,68,73,71,64,94,73,52,29.96,29.92,29.85,10,9,5,29,8,35,0.49,4,Rain,110
2013-6-6,90,78,65,68,66,63,93,72,50,29.86,29.80,29.75,10,10,7,20,5,29,0.00,4,,335
2013-6-7,86,77,68,69,67,66,93,74,55,29.91,29.83,29.78,10,8,3,16,4,21,0.01,4,Rain,283
2013-6-8,89,79,69,73,69,66,90,73,55,30.07,29.96,29.90,10,10,5,22,7,33,0.30,4,Rain-Thunderstorm,169
2013-6-9,79,75,70,72,70,67,93,82,71,30.04,30.00,29.96,10,10,5,21,9,28,0.07,5,Rain-Thunderstorm,146
2013-6-10,83,77,71,74,71,68,94,82,69,30.07,30.03,29.99,10,8,1,15,6,21,0.80,6,Rain-Thunderstorm,203
2013-6-11,94,83,72,75,73,68,94,71,47,30.12,30.06,30.03,10,7,2,17,4,21,0.00,5,,227
2013-6-12,94,84,74,75,72,66,94,68,41,30.11,30.06,30.01,10,9,4,14,5,17,0.00,2,,238
2013-6-13,94,84,74,73,71,67,88,65,41,30.05,29.97,29.88,10,10,7,12,5,16,0.00,1,,265
2013-6-14,93,84,74,74,69,64,94,68,41,29.96,29.91,29.87,10,9,2,16,7,21,0.21,4,Rain,337
2013-6-15,92,82,71,75,68,63,91,68,44,30.03,29.99,29.94,10,10,9,13,6,21,0.00,2,,103
2013-6-16,93,85,77,76,74,69,94,73,52,30.07,30.02,29.99,10,8,2,24,5,30,0.05,3,Rain-Thunderstorm,160
2013-6-17,91,84,76,75,73,71,94,75,56,30.03,29.99,29.96,10,10,10,20,8,23,0.00,3,,210
2013-6-18,91,81,70,73,71,68,94,72,50,30.03,29.97,29.90,10,8,2,24,8,30,1.14,6,Rain-Thunderstorm,234
2013-6-19,87,79,70,73,70,68,97,77,57,30.04,30.00,29.95,10,10,7,9,2,12,T,4,Rain,321
2013-6-20,92,82,71,73,70,67,93,70,47,30.11,30.07,30.02,10,10,7,20,3,24,0.00,4,,340
2013-6-21,92,82,71,73,70,67,93,69,44,30.13,30.09,30.06,10,8,1,22,4,24,0.41,3,Rain,86
2013-6-22,91,81,71,72,70,65,93,69,44,30.12,30.08,30.02,10,10,10,12,5,18,0.00,1,,88
2013-6-23,89,81,73,74,72,68,94,78,61,30.11,30.07,30.04,10,9,3,17,4,20,0.21,4,Rain-Thunderstorm,116
2013-6-24,88,81,73,74,72,69,94,75,55,30.18,30.13,30.09,10,9,4,12,3,14,0.00,5,Thunderstorm,143
2013-6-25,90,81,71,74,72,69,93,75,56,30.15,30.09,30.04,10,10,7,14,4,18,0.00,4,,165
2013-6-26,90,82,73,75,73,71,93,76,59,30.10,30.04,29.99,10,9,5,16,5,20,0.04,5,Rain-Thunderstorm,180
2013-6-27,93,84,75,76,73,70,94,72,49,30.03,29.98,29.92,10,10,7,10,5,16,0.00,4,,244
2013-6-28,95,87,78,78,75,72,91,72,52,29.94,29.87,29.77,10,10,6,13,6,17,0.00,5,,250
2013-6-29,92,82,71,75,71,66,87,68,49,29.81,29.76,29.68,10,10,2,26,5,31,0.14,4,Rain-Thunderstorm,262
2013-6-30,91,81,71,72,66,58,93,64,34,29.79,29.74,29.71,10,10,6,12,3,16,0.00,4,,312